Regional Weather Roundup
Issued by NWS

Home | Current Version | Previous Version | Text Only | Print | Product List | Glossary Off
Versions: 1 2 3 4 5 6 7 8 9 10 11 12 13 14 15 16 17 18 19 20 21 22 23 24 25 26 27 28 29 30 31 32 33 34 35 36 37 38 39 40 41 42 43 44 45 46 47 48 49 50

000
ASUS45 KCYS 040410
RWRWY

WYOMING REGIONAL WEATHER ROUNDUP
NATIONAL WEATHER SERVICE CHEYENNE WY
1000 PM MDT THU SEP 03 2015

NOTE:  "FAIR" INDICATES FEW OR NO CLOUDS BELOW 12,000 FEET
WITH NO SIGNIFICANT WEATHER AND/OR OBSTRUCTIONS TO VISIBILITY.

WYZ001-040500-
YELLOWSTONE NATIONAL PARK

CITY           SKY/WX    TMP DP  RH WIND       PRES   REMARKS
LK YELLOWSTONE   N/A     50  38  63 NW3       30.05R
W YELLOWSTONE  NOT AVBL

$$
WYZ002>013-054>058-071-098>099-040500-
NORTHERN WYOMING

CITY           SKY/WX    TMP DP  RH WIND       PRES   REMARKS
JACKSON        CLOUDY    57  46  67 SE8       30.01S
CODY           FAIR      61  43  51 CALM      29.88R
GREYBULL       FAIR      75  39  27 NW7       29.74F
WORLAND        FAIR      66  40  38 NE6       29.78R
SHERIDAN       FAIR      68  40  35 W13       29.84R
BUFFALO        FAIR      68  40  35 N15       29.90R
GILLETTE       FAIR      78  42  27 W12       29.80R
HULETT         FAIR      72  48  43 SE8       29.81S
NEWCASTLE      FAIR      77  37  24 SE13      29.83S

$$
WYZ014>020-022>026-101>103-040500-
CENTRAL WYOMING

CITY           SKY/WX    TMP DP  RH WIND       PRES   REMARKS
BIG PINEY      MOCLDY    61  35  37 SW3       30.01R
PINEDALE       FAIR      57  32  38 W3        30.01R
DUBOIS         FAIR      61  30  31 SW12      29.98S
LANDER         FAIR      71  33  24 S18       29.86R
RIVERTON       FAIR      71  32  23 S8        29.87R
CASPER         FAIR      72  40  31 SE3       29.93R
DOUGLAS        FAIR      65  54  67 NW6       29.91F

$$
WYZ021-027>030-104>119-040500-
SOUTHERN WYOMING

CITY           SKY/WX    TMP DP  RH WIND       PRES   REMARKS
EVANSTON       FAIR      62  28  27 S10       30.01R
KEMMERER       FAIR      61  23  23 S5        30.02R
FORT BRIDGER   CLEAR     61  28  29 S9        30.04R
ROCK SPRINGS   FAIR      66  34  30 S14       29.99R
DIXON          FAIR      60  45  57 E9        30.08S
RAWLINS        FAIR      59  44  57 SE10      30.06S
SARATOGA       FAIR      55  45  67 SE14      30.11S
LARAMIE        FAIR      49  32  52 SW9       30.12S
CHEYENNE       FAIR      58  47  66 W7        30.04S
TORRINGTON     CLOUDY    72  49  44 E7        29.90S
PINE BLUFFS    FAIR      63  46  55 CALM      30.00S

$$



USA.gov is the U.S. government's official web portal to all federal, state and local government web resources and services.